Weather History for Kalaeloa, HI

Change the Weather History Date:

Saturday, October 6, 2012

  Actual Average (PHNL) Record (PHNL)
Temperature  
Mean Temperature 73 °F 81 °F  
Max Temperature 80 °F 88 °F 94 °F (1984)
Min Temperature 66 °F 74 °F 67 °F (1980)
Degree Days  
Heating Degree Days 0 0  
Month to date heating degree days 0  
Since 1 July heating degree days 0  
Cooling Degree Days 8 16  
Month to date cooling degree days 96  
Year to date cooling degree days 3575  
Growing Degree Days 23 (Base 50)    
Moisture  
Dew Point 69 °F    
Average Humidity 84    
Maximum Humidity 93    
Minimum Humidity 72    
Precipitation  
Precipitation 0.02 in 0.05 in 0.41 in (1878)
Month to date precipitation 0.26  
Year to date precipitation 9.86  
Snow  
Snow 0.00 in - - ()
Month to date snowfall  
Since 1 July snowfall  
Since 1 September snowfall  
Snow Depth -    
Sea Level Pressure  
Sea Level Pressure 29.93 in    
Wind  
Wind Speed 3 mph (SW)    
Max Wind Speed 8 mph    
Max Gust Speed -    
Visibility 10 miles    
Events Rain    
T = Trace of Precipitation, MM = Missing Value Source: NWS Daily Summary

Daily Weather History Graph

Daily Weather History Graph

Search for Another Location

Airport:

Trip Planner

Search our weather history database for the weather conditions in past years. The results will help you decide how hot, cold, wet, or windy it might be!

Date:

Astronomy

Oct. 06, 2012 Rise Set
Actual Time 6:25 AM HST 6:14 PM HST
Civil Twilight 6:02 AM HST 6:37 PM HST
Nautical Twilight 5:37 AM HST 7:02 PM HST
Astronomical Twilight 5:11 AM HST 7:28 PM HST
Moon 11:11 PM HST (10/6) 11:55 AM HST (10/6)
Length of Visible Light 12h 34m
Length of Day
11h 49m
Waning Gibbous, 63% of the Moon is Illuminated
Oct 6
Waning Gibbous
Oct 7
Last Quarter
Oct 15
New
Oct 21
First Quarter
Oct 29
Full

Hourly Weather History & Observations

Time (HST) Temp. Heat Index Dew Point Humidity Pressure Visibility Wind Dir Wind Speed Gust Speed Precip Events Conditions
12:07 AM 71.6 °F - 66.2 °F 83% 29.95 in 10.0 mi Calm Calm - N/A   Mostly Cloudy
12:15 AM 71.6 °F - 66.2 °F 83% 29.95 in 10.0 mi Calm Calm - N/A   Mostly Cloudy
12:46 AM 71.6 °F - 66.2 °F 83% 29.94 in 10.0 mi Calm Calm - N/A   Mostly Cloudy
12:53 AM 71.1 °F - 66.0 °F 84% 29.96 in 10.0 mi Calm Calm - N/A   Scattered Clouds
1:53 AM 70.0 °F - 66.0 °F 87% 29.94 in 10.0 mi NE 3.5 mph - N/A   Clear
2:53 AM 69.1 °F - 66.0 °F 90% 29.93 in 10.0 mi Calm Calm - N/A   Clear
3:53 AM 68.0 °F - 64.9 °F 90% 29.92 in 10.0 mi ENE 3.5 mph - N/A   Clear
4:53 AM 66.9 °F - 64.9 °F 93% 29.92 in 10.0 mi NNE 3.5 mph - N/A   Clear
5:53 AM 66.9 °F - 64.9 °F 93% 29.94 in 10.0 mi Calm Calm - N/A   Partly Cloudy
6:53 AM 68.0 °F - 64.9 °F 90% 29.95 in 10.0 mi Calm Calm - N/A   Partly Cloudy
7:53 AM 73.9 °F - 68.0 °F 82% 29.95 in 10.0 mi Calm Calm - N/A   Clear
8:53 AM 75.9 °F - 70.0 °F 82% 29.97 in 10.0 mi SSE 4.6 mph - N/A   Clear
9:53 AM 75.9 °F - 71.1 °F 85% 29.97 in 10.0 mi SE 4.6 mph - N/A   Clear
10:53 AM 78.1 °F - 70.0 °F 76% 29.96 in 10.0 mi South 8.1 mph - N/A   Clear
11:53 AM 80.1 °F 83.6 °F 71.1 °F 74% 29.95 in 10.0 mi South 8.1 mph - N/A   Partly Cloudy
12:53 PM 78.1 °F - 70.0 °F 76% 29.93 in 10.0 mi South 8.1 mph - N/A   Partly Cloudy
1:53 PM 79.0 °F - 70.0 °F 74% 29.90 in 10.0 mi SSW 8.1 mph - N/A   Clear
2:53 PM 79.0 °F - 69.1 °F 72% 29.89 in 10.0 mi SSW 8.1 mph - N/A   Overcast
3:53 PM 78.1 °F - 71.1 °F 79% 29.88 in 10.0 mi SSW 6.9 mph - N/A   Clear
4:53 PM 78.1 °F - 70.0 °F 76% 29.88 in 10.0 mi SSW 6.9 mph - N/A   Partly Cloudy
5:53 PM 77.0 °F - 70.0 °F 79% 29.89 in 10.0 mi SW 6.9 mph - N/A   Scattered Clouds
6:53 PM 75.9 °F - 70.0 °F 82% 29.90 in 10.0 mi WSW 8.1 mph - N/A   Clear
7:53 PM 75.9 °F - 71.1 °F 85% 29.93 in 10.0 mi West 4.6 mph - N/A   Mostly Cloudy
8:53 PM 75.9 °F - 71.1 °F 85% 29.95 in 10.0 mi WSW 4.6 mph - N/A   Mostly Cloudy
9:01 PM 75.2 °F - 71.6 °F 89% 29.93 in 10.0 mi WSW 5.8 mph - N/A   Mostly Cloudy
9:09 PM 75.2 °F - 71.6 °F 89% 29.93 in 5.0 mi NW 6.9 mph - 0.01 in Rain Rain
9:42 PM 75.2 °F - 71.6 °F 89% 29.93 in 10.0 mi WSW 4.6 mph - 0.02 in   Scattered Clouds
9:53 PM 75.0 °F - 72.0 °F 90% 29.95 in 10.0 mi WSW 4.6 mph - 0.02 in   Partly Cloudy
10:53 PM 73.9 °F - 71.1 °F 91% 29.94 in 10.0 mi SW 3.5 mph - N/A   Partly Cloudy
11:53 PM 75.0 °F - 70.0 °F 84% 29.93 in 10.0 mi SW 6.9 mph - N/A   Partly Cloudy